Location: Dęblin
(51.5600°N, 21.8563°E)
Time: 22:25:28
(UTC+01:00)

ISS - Visible Passes

Search period start: 19 January 2018 00:00
Search period end: 29 January 2018 00:00
Orbit: 402 x 407 km, 51.6° (Epoch: 20 January)

Date Brightness Start Highest point End Pass type
(mag) Time Alt. Az. Time Alt. Az. Time Alt. Az.
26 Jan -1.0 18:55:45 10° SW 18:56:12 13° SSW 18:56:12 13° SSW visible
27 Jan -2.1 18:03:55 10° SSW 18:06:11 21° SSE 18:06:11 21° SSE visible
28 Jan -1.6 17:12:29 10° S 17:14:18 14° SE 17:16:06 10° ESE visible
28 Jan -2.0 18:47:02 10° SW 18:48:46 27° SW 18:48:46 27° SW visible
